| time (UTC) | temp F | wind direction | speed MPH | gust MPH | rain 1hr in | rain 24hr in | rain mn in | humidity % | barometer mb |
| 20260505230303 | 33 | 315 | 2.0 | 2.0 | 0.00 | 0.00 | 0.00 | 88 | 1016.6 |
| 20260505225805 | 33 | 315 | 2.0 | 2.0 | 0.00 | 0.00 | 0.00 | 88 | 1016.6 |
| 20260505224304 | 33 | 315 | 3.0 | 5.0 | 0.00 | 0.00 | 0.00 | 88 | 1016.6 |
| 20260505223803 | 33 | 315 | 5.0 | 8.0 | 0.00 | 0.00 | 0.00 | 88 | 1016.6 |
| 20260505222803 | 33 | 315 | 6.0 | 8.0 | 0.00 | 0.00 | 0.00 | 88 | 1016.6 |
| 20260505221803 | 33 | 315 | 7.0 | 9.0 | 0.00 | 0.00 | 0.00 | 88 | 1016.4 |
| 20260505221304 | 33 | 315 | 7.0 | 10.0 | 0.00 | 0.00 | 0.00 | 88 | 1016.6 |
| 20260505220804 | 33 | 330 | 6.0 | 8.0 | 0.00 | 0.00 | 0.00 | 88 | 1016.4 |
| 20260505220304 | 33 | 315 | 5.0 | 6.0 | 0.00 | 0.00 | 0.00 | 88 | 1016.6 |
| 20260505215803 | 33 | 315 | 5.0 | 6.0 | 0.00 | 0.00 | 0.00 | 88 | 1016.6 |
| 20260505215305 | 33 | 0 | 5.0 | 6.0 | 0.00 | 0.00 | 0.00 | 88 | 1016.6 |
| 20260505214303 | 34 | 315 | 5.0 | 10.0 | 0.00 | 0.00 | 0.00 | 88 | 1016.6 |
| 20260505213803 | 34 | 332 | 7.0 | 9.0 | 0.00 | 0.00 | 0.00 | 88 | 1016.6 |
| 20260505213304 | 34 | 330 | 6.0 | 8.0 | 0.00 | 0.00 | 0.00 | 88 | 1016.6 |
| 20260505212803 | 34 | 315 | 6.0 | 9.0 | 0.00 | 0.00 | 0.00 | 88 | 1016.7 |
| 20260505212305 | 34 | 335 | 7.0 | 9.0 | 0.00 | 0.00 | 0.00 | 88 | 1016.6 |
| 20260505211804 | 34 | 343 | 7.0 | 12.0 | 0.00 | 0.00 | 0.00 | 88 | 1016.9 |
| 20260505210803 | 34 | 327 | 7.0 | 12.0 | 0.00 | 0.00 | 0.00 | 88 | 1016.9 |
| 20260505210303 | 34 | 339 | 9.0 | 12.0 | 0.00 | 0.00 | 0.00 | 87 | 1016.9 |
| 20260505205804 | 34 | 341 | 9.0 | 14.0 | 0.00 | 0.00 | 0.00 | 87 | 1017.0 |
| 20260505204803 | 34 | 352 | 10.0 | 13.0 | 0.00 | 0.00 | 0.00 | 87 | 1017.1 |
| 20260505203803 | 35 | 358 | 10.0 | 14.0 | 0.00 | 0.00 | 0.00 | 85 | 1017.2 |
| 20260505203304 | 35 | 355 | 9.0 | 13.0 | 0.00 | 0.00 | 0.00 | 85 | 1017.2 |
| 20260505202306 | 36 | 336 | 10.0 | 13.0 | 0.00 | 0.00 | 0.00 | 83 | 1017.2 |
| 20260505201804 | 37 | 0 | 13.0 | 16.0 | 0.00 | 0.00 | 0.00 | 81 | 1017.1 |
| 20260505201304 | 38 | 349 | 13.0 | 17.0 | 0.00 | 0.00 | 0.00 | 79 | 1017.2 |
| 20260505200804 | 38 | 0 | 13.0 | 16.0 | 0.00 | 0.00 | 0.00 | 78 | 1017.2 |
| 20260505200304 | 39 | 355 | 12.0 | 17.0 | 0.00 | 0.00 | 0.00 | 77 | 1016.9 |
| 20260505195804 | 39 | 349 | 13.0 | 17.0 | 0.00 | 0.00 | 0.00 | 75 | 1016.9 |
| 20260505195305 | 41 | 0 | 15.0 | 20.0 | 0.00 | 0.00 | 0.00 | 73 | 1016.9 |
| 20260505194803 | 42 | 352 | 14.0 | 21.0 | 0.00 | 0.00 | 0.00 | 71 | 1016.9 |
| 20260505194303 | 42 | 0 | 13.0 | 20.0 | 0.00 | 0.00 | 0.00 | 71 | 1016.7 |
| 20260505193804 | 43 | 1 | 14.0 | 18.0 | 0.00 | 0.00 | 0.00 | 70 | 1016.9 |
| 20260505192803 | 46 | 1 | 12.0 | 16.0 | 0.00 | 0.00 | 0.00 | 67 | 1016.6 |
| 20260505192305 | 46 | 7 | 11.0 | 15.0 | 0.00 | 0.00 | 0.00 | 67 | 1016.9 |
| 20260505190804 | 47 | 354 | 9.0 | 13.0 | 0.00 | 0.00 | 0.00 | 64 | 1016.9 |
| 20260505190304 | 46 | 1 | 5.0 | 8.0 | 0.00 | 0.00 | 0.00 | 65 | 1017.0 |
| 20260505185803 | 45 | 318 | 3.0 | 8.0 | 0.00 | 0.00 | 0.00 | 66 | 1017.2 |
| 20260505184803 | 44 | 340 | 6.0 | 8.0 | 0.00 | 0.00 | 0.00 | 68 | 1017.2 |
| 20260505184304 | 44 | 24 | 5.0 | 9.0 | 0.00 | 0.00 | 0.00 | 69 | 1017.2 |
| 20260505183804 | 43 | 0 | 5.0 | 10.0 | 0.00 | 0.00 | 0.00 | 69 | 1017.2 |
| 20260505183304 | 43 | 325 | 5.0 | 10.0 | 0.00 | 0.00 | 0.00 | 68 | 1017.2 |
| 20260505182803 | 46 | 315 | 9.0 | 13.0 | 0.00 | 0.00 | 0.00 | 65 | 1017.2 |
| 20260505181804 | 46 | 225 | 1.0 | 9.0 | 0.00 | 0.00 | 0.00 | 66 | 1017.6 |
| 20260505181304 | 45 | 27 | 5.0 | 8.0 | 0.00 | 0.00 | 0.00 | 69 | 1017.6 |
| 20260505180803 | 44 | 135 | 3.0 | 9.0 | 0.00 | 0.00 | 0.00 | 70 | 1017.6 |
| 20260505175804 | 42 | 321 | 1.0 | 6.0 | 0.00 | 0.00 | 0.00 | 71 | 1017.8 |
| 20260505175305 | 42 | 0 | 5.0 | 9.0 | 0.00 | 0.00 | 0.00 | 72 | 1017.6 |
| 20260505174804 | 42 | 45 | 8.0 | 12.0 | 0.00 | 0.00 | 0.00 | 72 | 1017.6 |
| 20260505174304 | 41 | 36 | 6.0 | 10.0 | 0.00 | 0.00 | 0.00 | 73 | 1017.6 |
| 20260505173803 | 41 | 45 | 7.0 | 13.0 | 0.00 | 0.00 | 0.00 | 73 | 1017.8 |
| 20260505173303 | 41 | 17 | 8.0 | 12.0 | 0.00 | 0.00 | 0.00 | 73 | 1017.7 |
| 20260505172804 | 42 | 29 | 9.0 | 13.0 | 0.00 | 0.00 | 0.00 | 72 | 1017.9 |
| 20260505172305 | 42 | 0 | 6.0 | 12.0 | 0.00 | 0.00 | 0.00 | 72 | 1017.9 |
| 20260505171804 | 42 | 28 | 9.0 | 12.0 | 0.00 | 0.00 | 0.00 | 72 | 1017.9 |
| 20260505171304 | 42 | 27 | 9.0 | 13.0 | 0.00 | 0.00 | 0.00 | 73 | 1017.9 |
| 20260505170804 | 42 | 8 | 7.0 | 12.0 | 0.00 | 0.00 | 0.00 | 73 | 1017.9 |
| 20260505170304 | 41 | 358 | 5.0 | 10.0 | 0.00 | 0.00 | 0.00 | 73 | 1017.9 |
| 20260505165804 | 41 | 0 | 7.0 | 12.0 | 0.00 | 0.00 | 0.00 | 74 | 1017.9 |
| 20260505164804 | 41 | 0 | 9.0 | 13.0 | 0.00 | 0.00 | 0.00 | 73 | 1017.9 |
| 20260505164304 | 41 | 0 | 9.0 | 15.0 | 0.00 | 0.00 | 0.00 | 73 | 1017.9 |
| 20260505163804 | 41 | 0 | 10.0 | 14.0 | 0.00 | 0.00 | 0.00 | 72 | 1017.9 |
| 20260505163303 | 41 | 0 | 9.0 | 14.0 | 0.00 | 0.00 | 0.00 | 72 | 1018.0 |
| 20260505162306 | 42 | 359 | 9.0 | 16.0 | 0.00 | 0.00 | 0.00 | 71 | 1018.0 |
| 20260505161804 | 43 | 343 | 7.0 | 12.0 | 0.00 | 0.00 | 0.00 | 70 | 1018.2 |
| 20260505161304 | 43 | 0 | 6.0 | 9.0 | 0.00 | 0.00 | 0.00 | 71 | 1018.1 |
| 20260505160303 | 42 | 13 | 3.0 | 7.0 | 0.00 | 0.00 | 0.00 | 73 | 1018.2 |
| 20260505153304 | 39 | 0 | 6.0 | 8.0 | 0.00 | 0.00 | 0.00 | 76 | 1018.4 |
| 20260505152803 | 39 | 324 | 6.0 | 8.0 | 0.00 | 0.00 | 0.00 | 76 | 1018.3 |
| 20260505152305 | 39 | 322 | 6.0 | 8.0 | 0.00 | 0.00 | 0.00 | 77 | 1018.2 |
| 20260505151804 | 39 | 337 | 6.0 | 8.0 | 0.00 | 0.00 | 0.00 | 77 | 1018.6 |
| 20260505151304 | 39 | 359 | 6.0 | 8.0 | 0.00 | 0.00 | 0.00 | 78 | 1018.6 |
| 20260505150804 | 39 | 315 | 6.0 | 8.0 | 0.00 | 0.00 | 0.00 | 77 | 1018.3 |
| 20260505150304 | 39 | 0 | 6.0 | 8.0 | 0.00 | 0.00 | 0.00 | 77 | 1018.6 |
| 20260505140303 | 40 | 357 | 6.0 | 10.0 | 0.00 | 0.00 | 0.00 | 76 | 1018.7 |
| 20260505124803 | 37 | 315 | 3.0 | 7.0 | 0.00 | 0.00 | 0.00 | 81 | 1018.2 |
| 20260505124302 | 37 | 270 | 3.0 | 5.0 | 0.00 | 0.00 | 0.00 | 82 | 1018.2 |
| 20260505123303 | 36 | 270 | 3.0 | 5.0 | 0.00 | 0.00 | 0.00 | 82 | 1017.9 |
| 20260505122802 | 36 | 270 | 3.0 | 5.0 | 0.00 | 0.00 | 0.00 | 83 | 1017.9 |
| 20260505122305 | 36 | 270 | 5.0 | 6.0 | 0.00 | 0.00 | 0.00 | 83 | 1017.9 |
| 20260505121802 | 36 | 315 | 5.0 | 7.0 | 0.00 | 0.00 | 0.00 | 83 | 1017.9 |
| 20260505121302 | 36 | 315 | 5.0 | 8.0 | 0.00 | 0.00 | 0.00 | 83 | 1018.0 |
| 20260505120802 | 36 | 315 | 6.0 | 9.0 | 0.00 | 0.00 | 0.00 | 82 | 1017.9 |
| 20260505120302 | 36 | 315 | 6.0 | 8.0 | 0.00 | 0.00 | 0.00 | 81 | 1017.9 |
| 20260505115803 | 37 | 315 | 7.0 | 12.0 | 0.00 | 0.00 | 0.00 | 80 | 1018.2 |
| 20260505115304 | 37 | 315 | 7.0 | 10.0 | 0.00 | 0.00 | 0.00 | 79 | 1017.9 |
| 20260505114803 | 37 | 318 | 5.0 | 9.0 | 0.00 | 0.00 | 0.00 | 78 | 1017.9 |
| 20260505113802 | 37 | 270 | 8.0 | 10.0 | 0.00 | 0.00 | 0.00 | 77 | 1017.9 |
| 20260505113302 | 38 | 292 | 7.0 | 10.0 | 0.00 | 0.00 | 0.00 | 76 | 1017.9 |
| 20260505112802 | 38 | 324 | 6.0 | 8.0 | 0.00 | 0.00 | 0.00 | 74 | 1017.9 |
| 20260505112304 | 38 | 315 | 6.0 | 8.0 | 0.00 | 0.00 | 0.00 | 73 | 1017.9 |
| 20260505111802 | 39 | 315 | 5.0 | 7.0 | 0.00 | 0.00 | 0.00 | 72 | 1017.6 |
| 20260505111302 | 39 | 315 | 6.0 | 7.0 | 0.00 | 0.00 | 0.00 | 72 | 1017.7 |
| 20260505110802 | 39 | 292 | 5.0 | 6.0 | 0.00 | 0.00 | 0.00 | 72 | 1017.9 |
| 20260505110302 | 39 | 292 | 3.0 | 5.0 | 0.00 | 0.00 | 0.00 | 72 | 1017.9 |
| 20260505101303 | 39 | 292 | 6.0 | 8.0 | 0.00 | 0.00 | 0.00 | 74 | 1018.2 |
| 20260505100302 | 38 | 270 | 3.0 | 6.0 | 0.00 | 0.00 | 0.00 | 74 | 1018.0 |
| 20260505095802 | 38 | 270 | 6.0 | 6.0 | 0.00 | 0.00 | 0.00 | 75 | 1018.3 |
| 20260505095304 | 38 | 270 | 3.0 | 5.0 | 0.00 | 0.00 | 0.00 | 75 | 1018.3 |
| 20260505094803 | 38 | 270 | 3.0 | 5.0 | 0.00 | 0.00 | 0.00 | 75 | 1018.6 |
| 20260505094303 | 38 | 292 | 3.0 | 5.0 | 0.00 | 0.00 | 0.00 | 74 | 1018.6 |
| 20260505093802 | 39 | 315 | 3.0 | 7.0 | 0.00 | 0.00 | 0.00 | 74 | 1018.6 |
| 20260505093302 | 39 | 334 | 5.0 | 6.0 | 0.00 | 0.00 | 0.00 | 73 | 1018.6 |
| 20260505092802 | 39 | 315 | 5.0 | 6.0 | 0.00 | 0.00 | 0.00 | 71 | 1018.6 |
| 20260505092305 | 39 | 359 | 5.0 | 7.0 | 0.00 | 0.00 | 0.00 | 71 | 1018.6 |
| 20260505091803 | 40 | 292 | 6.0 | 8.0 | 0.00 | 0.00 | 0.00 | 70 | 1018.6 |
| 20260505091302 | 40 | 311 | 6.0 | 8.0 | 0.00 | 0.00 | 0.00 | 70 | 1018.6 |
| 20260505090802 | 40 | 279 | 5.0 | 6.0 | 0.00 | 0.00 | 0.00 | 70 | 1018.6 |
| 20260505085802 | 40 | 225 | 4.0 | 5.0 | 0.00 | 0.00 | 0.00 | 69 | 1018.6 |
| 20260505085304 | 40 | 225 | 4.0 | 7.0 | 0.00 | 0.00 | 0.00 | 69 | 1018.6 |
| 20260505084802 | 40 | 225 | 6.0 | 8.0 | 0.00 | 0.00 | 0.00 | 69 | 1018.6 |
| 20260505084302 | 40 | 225 | 3.0 | 5.0 | 0.00 | 0.00 | 0.00 | 69 | 1018.6 |
| 20260505083802 | 40 | 225 | 5.0 | 6.0 | 0.00 | 0.00 | 0.00 | 69 | 1018.6 |
| 20260505083303 | 40 | 180 | 1.0 | 5.0 | 0.00 | 0.00 | 0.00 | 69 | 1018.7 |
| 20260505082803 | 40 | 180 | 4.0 | 6.0 | 0.00 | 0.00 | 0.00 | 68 | 1018.6 |
| 20260505082304 | 40 | 135 | 3.0 | 5.0 | 0.00 | 0.00 | 0.00 | 67 | 1018.9 |
| 20260505081802 | 41 | 103 | 3.0 | 5.0 | 0.00 | 0.00 | 0.00 | 67 | 1018.9 |
| 20260505081302 | 41 | 135 | 5.0 | 6.0 | 0.00 | 0.00 | 0.00 | 67 | 1018.9 |
| 20260505080803 | 42 | 180 | 2.0 | 5.0 | 0.00 | 0.00 | 0.00 | 65 | 1018.9 |
| 20260505080302 | 42 | 45 | 1.0 | 5.0 | 0.00 | 0.00 | 0.00 | 64 | 1018.6 |
| 20260505075803 | 42 | 270 | 6.0 | 7.0 | 0.00 | 0.00 | 0.00 | 64 | 1018.6 |
| 20260505074803 | 43 | 247 | 7.0 | 8.0 | 0.00 | 0.00 | 0.00 | 63 | 1018.9 |
| 20260505074302 | 43 | 270 | 4.0 | 8.0 | 0.00 | 0.00 | 0.00 | 63 | 1018.9 |
| 20260505073803 | 43 | 270 | 5.0 | 8.0 | 0.00 | 0.00 | 0.00 | 64 | 1018.9 |
| 20260505073303 | 43 | 270 | 7.0 | 9.0 | 0.00 | 0.00 | 0.00 | 63 | 1018.9 |
| 20260505072304 | 44 | 270 | 5.0 | 6.0 | 0.00 | 0.00 | 0.00 | 61 | 1018.9 |
| 20260505071802 | 44 | 270 | 6.0 | 7.0 | 0.00 | 0.00 | 0.00 | 61 | 1019.0 |
| 20260505071303 | 44 | 270 | 4.0 | 6.0 | 0.00 | 0.00 | 0.00 | 61 | 1019.3 |
| 20260505070803 | 43 | 270 | 6.0 | 8.0 | 0.00 | 0.00 | 0.00 | 63 | 1019.3 |
| 20260505065803 | 42 | 270 | 4.0 | 8.0 | 0.00 | 0.00 | 0.00 | 64 | 1019.2 |
| 20260505065303 | 42 | 270 | 6.0 | 8.0 | 0.00 | 0.00 | 0.00 | 64 | 1018.9 |
| 20260505064802 | 43 | 270 | 5.0 | 9.0 | 0.00 | 0.00 | 0.00 | 64 | 1019.2 |
| 20260505064303 | 43 | 270 | 8.0 | 10.0 | 0.00 | 0.00 | 0.00 | 65 | 1019.2 |
| 20260505063803 | 43 | 247 | 6.0 | 8.0 | 0.00 | 0.00 | 0.00 | 65 | 1019.2 |
| 20260505063303 | 43 | 247 | 6.0 | 8.0 | 0.00 | 0.00 | 0.00 | 65 | 1019.0 |
| 20260505062802 | 42 | 247 | 6.0 | 8.0 | 0.00 | 0.00 | 0.00 | 67 | 1019.0 |
| 20260505062304 | 42 | 225 | 7.0 | 8.0 | 0.00 | 0.00 | 0.00 | 68 | 1019.3 |
| 20260505061803 | 43 | 247 | 7.0 | 8.0 | 0.00 | 0.00 | 0.00 | 68 | 1019.3 |
| 20260505061302 | 43 | 270 | 6.0 | 7.0 | 0.00 | 0.00 | 0.00 | 68 | 1019.3 |
| 20260505060902 | 43 | 247 | 6.0 | 7.0 | 0.00 | 0.00 | 0.00 | 68 | 1019.3 |
| 20260505060303 | 43 | 253 | 5.0 | 6.0 | 0.00 | 0.00 | 0.00 | 68 | 1019.3 |
| 20260505055803 | 43 | 303 | 2.0 | 3.0 | 0.00 | 0.00 | 0.00 | 67 | 1019.3 |
| 20260505055304 | 44 | 346 | 1.0 | 2.0 | 0.00 | 0.00 | 0.00 | 67 | 1019.3 |
| 20260505054802 | 44 | 0 | 2.0 | 6.0 | 0.00 | 0.00 | 0.00 | 66 | 1019.3 |
| 20260505054303 | 45 | 0 | 6.0 | 8.0 | 0.00 | 0.00 | 0.00 | 64 | 1019.3 |
| 20260505053802 | 46 | 260 | 6.0 | 7.0 | 0.00 | 0.00 | 0.00 | 62 | 1019.3 |
| 20260505053303 | 46 | 270 | 6.0 | 7.0 | 0.00 | 0.00 | 0.00 | 60 | 1019.3 |
| 20260505052803 | 46 | 287 | 5.0 | 7.0 | 0.00 | 0.00 | 0.00 | 59 | 1019.3 |
| 20260505052304 | 46 | 315 | 5.0 | 8.0 | 0.00 | 0.00 | 0.00 | 60 | 1019.3 |
| 20260505051802 | 46 | 315 | 6.0 | 8.0 | 0.00 | 0.00 | 0.00 | 61 | 1019.3 |
| 20260505051302 | 46 | 270 | 5.0 | 9.0 | 0.00 | 0.00 | 0.00 | 62 | 1019.3 |
| 20260505050303 | 46 | 270 | 7.0 | 8.0 | 0.00 | 0.00 | 0.00 | 60 | 1019.3 |
| 20260505040802 | 47 | 270 | 7.0 | 13.0 | 0.00 | 0.00 | 0.00 | 59 | 1019.3 |
| 20260505040302 | 47 | 270 | 9.0 | 13.0 | 0.00 | 0.00 | 0.00 | 61 | 1019.3 |
| 20260505035802 | 46 | 225 | 9.0 | 10.0 | 0.00 | 0.00 | 0.00 | 62 | 1019.3 |
| 20260505035304 | 46 | 225 | 7.0 | 9.0 | 0.00 | 0.00 | 0.00 | 62 | 1019.3 |
| 20260505034303 | 47 | 225 | 7.0 | 9.0 | 0.00 | 0.00 | 0.00 | 60 | 1018.9 |
| 20260505033803 | 47 | 225 | 7.0 | 9.0 | 0.00 | 0.00 | 0.00 | 61 | 1018.9 |
| 20260505033302 | 46 | 225 | 9.0 | 12.0 | 0.00 | 0.00 | 0.00 | 64 | 1018.9 |
| 20260505032802 | 46 | 225 | 8.0 | 10.0 | 0.00 | 0.00 | 0.00 | 65 | 1018.9 |
| 20260505032304 | 46 | 225 | 6.0 | 9.0 | 0.00 | 0.00 | 0.00 | 65 | 1018.9 |
| 20260505031803 | 46 | 225 | 6.0 | 8.0 | 0.00 | 0.00 | 0.00 | 64 | 1018.6 |
| 20260505031303 | 46 | 225 | 5.0 | 7.0 | 0.00 | 0.00 | 0.00 | 64 | 1018.6 |
| 20260505030303 | 46 | 225 | 7.0 | 8.0 | 0.00 | 0.00 | 0.00 | 66 | 1018.6 |
| 20260505025803 | 47 | 225 | 6.0 | 8.0 | 0.00 | 0.00 | 0.00 | 63 | 1018.9 |
| 20260505025304 | 47 | 225 | 9.0 | 14.0 | 0.00 | 0.00 | 0.00 | 61 | 1018.9 |
| 20260505024802 | 48 | 217 | 10.0 | 16.0 | 0.00 | 0.00 | 0.00 | 59 | 1018.9 |
| 20260505024303 | 48 | 225 | 12.0 | 16.0 | 0.00 | 0.00 | 0.00 | 60 | 1018.9 |
| 20260505023803 | 48 | 225 | 8.0 | 12.0 | 0.00 | 0.00 | 0.00 | 60 | 1018.6 |
| 20260505023303 | 48 | 225 | 8.0 | 12.0 | 0.00 | 0.00 | 0.00 | 59 | 1018.6 |
| 20260505022803 | 48 | 180 | 10.0 | 13.0 | 0.00 | 0.00 | 0.00 | 58 | 1018.6 |
| 20260505021302 | 49 | 180 | 5.0 | 6.0 | 0.00 | 0.00 | 0.00 | 57 | 1018.2 |
| 20260505020802 | 49 | 90 | 3.0 | 6.0 | 0.00 | 0.00 | 0.00 | 57 | 1018.2 |
| 20260505020303 | 49 | 90 | 6.0 | 8.0 | 0.00 | 0.00 | 0.00 | 57 | 1018.2 |
| 20260505015803 | 50 | 112 | 7.0 | 9.0 | 0.00 | 0.00 | 0.00 | 55 | 1018.2 |
| 20260505015303 | 50 | 270 | 5.0 | 6.0 | 0.00 | 0.00 | 0.00 | 54 | 1018.0 |
| 20260505014303 | 50 | 270 | 3.0 | 6.0 | 0.00 | 0.00 | 0.00 | 53 | 1017.9 |
| 20260505013303 | 51 | 0 | 5.0 | 9.0 | 0.00 | 0.00 | 0.00 | 51 | 1017.9 |
| 20260505012802 | 51 | 315 | 7.0 | 12.0 | 0.00 | 0.00 | 0.00 | 51 | 1017.9 |
| 20260505011303 | 54 | 154 | 5.0 | 7.0 | 0.00 | 0.00 | 0.00 | 40 | 1017.9 |
| 20260505010803 | 54 | 229 | 6.0 | 13.0 | 0.00 | 0.00 | 0.00 | 40 | 1017.9 |
| 20260505010303 | 54 | 251 | 3.0 | 7.0 | 0.00 | 0.00 | 0.00 | 40 | 1017.6 |
| 20260505005304 | 55 | 225 | 3.0 | 7.0 | 0.00 | 0.00 | 0.00 | 39 | 1017.6 |
| 20260505004303 | 55 | 125 | 8.0 | 15.0 | 0.00 | 0.00 | 0.00 | 40 | 1017.6 |
| 20260505003803 | 55 | 225 | 9.0 | 16.0 | 0.00 | 0.00 | 0.00 | 40 | 1017.6 |
| 20260505003303 | 55 | 218 | 6.0 | 12.0 | 0.00 | 0.00 | 0.00 | 40 | 1017.9 |
| 20260505002803 | 55 | 131 | 6.0 | 12.0 | 0.00 | 0.00 | 0.00 | 40 | 1017.9 |
| 20260505002304 | 55 | 226 | 7.0 | 13.0 | 0.00 | 0.00 | 0.00 | 40 | 1017.9 |
| 20260505001803 | 55 | 225 | 13.0 | 21.0 | 0.00 | 0.00 | 0.00 | 40 | 1017.9 |
| 20260505001302 | 56 | 252 | 13.0 | 21.0 | 0.00 | 0.00 | 0.00 | 39 | 1017.9 |
| 20260505000803 | 57 | 286 | 4.0 | 12.0 | 0.00 | 0.00 | 0.00 | 37 | 1017.9 |
| 20260505000303 | 57 | 0 | 3.0 | 5.0 | 0.00 | 0.00 | 0.00 | 37 | 1017.9 |
| 20260504235802 | 57 | 225 | 6.0 | 8.0 | 0.00 | 0.00 | 0.00 | 37 | 1017.9 |
| 20260504235304 | 57 | 45 | 1.0 | 3.0 | 0.00 | 0.00 | 0.00 | 37 | 1017.9 |
| 20260504234803 | 56 | 120 | 1.0 | 3.0 | 0.00 | 0.00 | 0.00 | 37 | 1017.9 |
| 20260504234303 | 56 | 225 | 1.0 | 6.0 | 0.00 | 0.00 | 0.00 | 37 | 1017.9 |
| 20260504233303 | 56 | 146 | 2.0 | 6.0 | 0.00 | 0.00 | 0.00 | 37 | 1017.9 |
| 20260504231802 | 55 | 150 | 2.0 | 3.0 | 0.00 | 0.00 | 0.00 | 38 | 1017.9 |
| 20260504231303 | 55 | 150 | 4.0 | 7.0 | 0.00 | 0.00 | 0.00 | 38 | 1017.9 |
| 20260504230803 | 56 | 90 | 6.0 | 13.0 | 0.00 | 0.00 | 0.00 | 39 | 1017.9 |